Theta_e
353 354 356 354 351 356 357 359 359 356 353 352 354 354 353 351 353 352 349 348 351 348 342 340 340 340 340 340 342 345 346 346 347 347 348 348 346 347 347 349 349 345 345 344
349 355 346 351 354 355 356 358 356 354 353 353 356 354 353 355 353 351 350 349 349 349 347 343 340 339 339 340 342 345 346 347 348 348 348 346 347 346 345 344 344 344 345 345
348 349 351 355 356 357 355 356 355 353 355 353 352 351 350 355 354 351 348 346 344 346 347 345 338 337 339 339 342 344 346 347 348 348 347 347 346 345 345 345 345 344 343 344
352 351 354 355 356 354 357 352 354 356 356 360 349 354 346 352 355 354 353 350 347 345 345 346 342 336 337 339 340 343 344 346 347 347 346 345 344 345 344 344 345 344 343 343
351 352 347 346 349 352 354 341 353 352 347 345 353 350 340 351 356 354 351 350 349 347 346 346 344 341 337 338 339 341 343 345 345 345 345 344 344 343 340 339 343 343 342 344
351 346 344 343 348 348 343 340 337 340 341 348 346 344 338 348 349 344 341 340 342 344 347 347 345 346 343 339 339 339 341 342 344 344 345 344 344 343 341 341 342 342 343 344
341 344 341 344 346 336 334 332 335 340 342 342 338 341 339 338 341 341 342 343 344 345 346 346 345 345 345 341 340 339 340 339 342 344 344 345 344 343 342 339 342 349 352 351
344 345 344 343 343 340 337 331 333 341 339 333 339 349 342 336 340 338 338 339 344 345 344 344 345 346 346 345 341 341 340 340 340 343 344 344 344 344 342 341 340 345 351 350
348 345 342 337 341 337 334 331 329 329 327 327 331 335 339 337 337 335 335 344 346 347 347 346 346 347 348 348 347 344 343 341 341 344 343 343 343 343 343 341 345 347 349 347
343 344 335 325 331 329 331 329 331 321 327 329 329 333 340 337 335 331 332 343 344 347 349 348 348 348 349 350 351 351 350 348 346 346 345 345 344 344 343 343 345 346 344 344
331 332 326 324 326 326 329 330 321 319 320 324 327 327 324 332 331 329 334 342 344 347 349 349 349 350 350 350 350 350 350 350 350 349 348 346 347 345 345 343 344 343 339 339
340 320 324 325 324 321 328 327 320 325 327 319 321 324 326 326 326 330 340 345 346 350 350 350 349 351 352 352 352 351 351 350 349 349 351 351 347 345 342 340 339 339 340 340
323 319 325 323 317 321 326 327 322 318 318 323 325 327 333 335 335 338 345 347 348 349 348 346 347 347 348 350 350 350 350 348 345 344 344 346 348 343 340 340 330 330 336 338
324 316 324 324 320 321 327 330 327 325 327 327 324 326 338 340 343 350 350 349 347 346 345 344 343 342 346 348 348 347 345 343 341 341 342 344 347 344 341 340 334 330 333 334
323 329 320 321 320 324 327 331 332 330 328 329 328 323 326 339 345 349 348 348 348 348 346 343 343 341 343 344 344 343 341 340 339 339 342 344 346 346 342 341 337 333 335 335
322 329 326 333 332 332 333 330 330 328 329 324 326 327 329 336 337 340 343 346 348 348 349 346 342 342 343 344 344 344 341 339 337 338 340 344 346 347 342 340 336 335 335 335
325 324 325 329 327 329 329 328 327 328 329 329 334 332 334 336 337 335 337 336 339 344 346 347 344 343 345 346 346 344 341 338 336 336 338 341 342 341 341 339 337 337 336 335
323 323 322 327 328 334 329 325 327 328 331 329 329 330 335 336 334 340 337 336 337 340 345 344 342 344 346 346 345 344 339 337 335 335 336 338 342 342 340 340 339 339 338 337
321 321 327 330 328 329 332 331 332 331 332 333 334 336 336 340 340 340 336 334 333 332 331 334 337 337 342 345 345 343 338 336 335 334 334 335 338 339 339 339 339 335 334 336
324 321 328 328 335 336 332 331 331 329 333 335 336 337 340 336 342 339 334 336 334 328 329 332 337 340 343 345 344 342 338 335 335 335 335 335 335 337 337 336 336 334 335 335
329 326 331 330 332 332 331 333 332 336 334 336 335 334 334 336 333 329 327 332 329 328 329 336 341 343 344 345 343 340 338 335 337 336 335 335 334 334 335 335 334 335 335 334
332 333 332 330 336 339 330 336 338 332 333 335 332 331 330 328 328 328 329 328 326 331 335 337 341 343 344 344 343 340 339 340 338 336 335 335 334 334 334 334 334 334 334 333
333 326 329 328 331 325 327 334 331 331 331 334 332 330 329 329 329 328 327 327 327 329 331 336 342 342 344 344 343 340 342 340 338 337 335 335 334 333 334 334 334 333 333 333
328 323 324 324 323 326 328 325 327 329 330 330 330 330 330 331 330 330 328 328 327 328 332 335 341 341 342 344 343 343 341 340 339 337 336 335 334 333 333 333 333 332 333 334
324 323 321 320 320 320 322 324 325 326 328 328 327 328 329 329 328 326 327 327 327 328 330 337 341 342 343 344 344 343 341 340 339 338 337 335 333 333 332 332 332 333 333 331
319 320 322 324 320 318 320 322 325 326 327 326 326 327 326 327 325 325 326 326 327 328 331 338 340 340 341 341 340 340 340 341 339 336 335 335 334 334 333 333 332 333 332 332
Wind_Speed
2 1 6 8 6 2 3 2 3 3 4 2 6 8 5 9 5 6 8 9 12 16 15 22 27 31 30 34 37 41 39 40 39 36 35 33 32 29 31 36 35 33 32 30
3 7 10 2 3 1 1 1 5 5 8 5 0 9 3 5 5 6 6 8 9 9 7 10 23 26 29 37 40 38 41 45 44 41 40 33 38 32 29 31 32 33 33 34
6 3 5 5 4 5 4 4 4 6 2 2 2 7 6 2 3 4 7 8 7 10 8 7 10 21 24 29 39 41 45 44 44 45 41 35 33 31 31 31 30 30 29 32
4 3 6 5 8 9 4 8 9 6 6 3 3 4 5 5 7 5 13 9 10 11 7 6 9 15 25 30 36 41 42 46 48 47 43 38 33 30 35 34 39 35 31 33
4 5 6 4 4 8 11 4 11 4 2 4 0 2 7 3 6 11 11 13 15 15 12 13 10 23 29 27 34 42 44 48 49 50 45 42 34 36 35 37 37 36 33 33
6 2 2 6 2 7 5 4 7 4 4 1 7 6 6 5 8 6 6 11 12 8 12 12 16 22 26 28 34 39 45 47 46 48 47 44 40 40 34 31 32 33 33 32
6 4 4 5 4 4 5 6 3 4 4 5 2 3 9 6 8 9 9 8 7 6 6 8 8 11 22 29 34 35 38 43 45 46 44 46 46 43 40 35 33 25 25 24
1 6 1 2 5 5 2 5 5 3 2 5 1 5 6 6 7 8 5 6 5 7 6 6 8 8 14 19 30 36 36 39 35 40 43 42 43 41 39 36 34 30 25 22
4 5 6 3 5 6 1 3 4 5 2 2 3 7 7 3 4 5 7 7 8 5 4 5 3 6 13 21 22 18 17 17 22 30 34 35 37 39 40 32 27 25 19 18
3 2 3 7 5 2 4 4 2 4 1 3 5 5 5 6 9 7 7 10 6 3 2 2 1 6 9 13 11 9 11 14 18 19 27 32 36 36 34 30 25 21 10 12
4 3 7 3 3 3 5 3 7 5 4 5 1 6 5 9 10 11 5 8 8 7 5 5 5 7 8 11 15 15 15 16 19 21 26 28 32 33 30 26 28 24 21 21
2 5 3 8 3 5 3 3 4 5 6 2 5 6 6 8 7 8 7 8 6 7 7 6 4 5 4 6 7 8 8 8 8 11 14 19 24 24 21 13 6 10 28 26
7 0 3 10 7 5 3 2 5 4 3 4 4 6 5 4 5 5 10 8 8 7 6 4 3 5 8 8 9 9 10 13 17 18 14 13 16 18 23 23 6 7 21 19
9 3 6 6 8 2 4 3 2 5 2 3 6 6 4 4 7 7 6 7 8 7 6 5 6 6 11 13 14 13 11 12 14 15 14 13 15 23 30 30 17 15 27 31
4 3 3 5 6 3 5 8 3 5 6 5 9 7 8 11 10 11 10 7 6 7 8 8 7 6 11 15 18 15 12 10 12 12 11 13 14 24 31 29 19 18 29 33
3 1 5 4 6 5 6 9 9 6 5 6 6 9 8 6 4 6 7 5 8 8 8 8 7 6 13 18 19 16 12 12 10 9 8 6 15 21 26 28 19 23 25 27
2 6 3 6 2 3 7 7 7 6 5 5 5 9 6 6 6 5 7 8 8 8 9 9 9 12 19 22 23 20 15 10 7 6 6 4 13 18 22 24 24 25 24 26
6 5 4 4 3 5 9 5 8 8 6 7 5 6 11 8 6 6 6 8 8 8 9 9 8 16 23 22 20 17 13 11 7 5 6 5 12 16 20 21 22 20 22 21
5 4 2 2 3 6 8 8 6 8 9 8 6 3 3 5 4 3 8 8 9 10 9 13 18 18 19 18 18 18 15 13 10 8 9 9 8 10 13 21 21 17 16 17
5 4 4 3 3 5 7 8 7 3 6 6 7 8 8 6 4 7 9 9 10 11 11 14 16 13 12 17 19 20 19 17 16 14 12 10 11 11 13 15 19 15 16 19
4 3 2 2 5 7 4 10 4 3 8 3 7 7 9 7 10 5 8 8 7 11 15 15 14 16 19 17 20 22 20 21 18 14 13 11 11 12 13 15 15 14 15 13
5 2 2 1 2 5 3 9 3 5 4 4 7 7 9 8 5 5 6 7 8 9 12 14 15 18 19 18 21 24 23 23 16 16 15 13 13 11 12 15 14 14 14 15
1 6 4 7 5 6 5 6 7 4 4 3 3 4 5 4 4 6 6 8 9 10 11 12 16 20 21 22 24 22 26 20 19 19 18 16 13 13 13 15 13 14 14 15
2 2 1 3 5 6 7 8 7 5 4 3 4 6 5 4 3 6 6 7 7 9 13 19 18 17 21 26 27 30 22 18 21 23 21 18 18 16 15 15 16 17 17 17
4 2 2 5 7 7 6 7 9 10 7 6 5 5 7 7 8 7 6 8 8 13 19 19 18 18 25 28 28 27 23 20 25 25 24 22 20 20 20 19 20 20 20 21
2 4 1 5 10 6 8 9 7 7 7 8 6 7 7 4 8 5 7 9 9 13 20 18 24 24 29 25 25 24 22 24 26 25 24 24 24 24 22 21 21 21 22 22
Wind_Direction
169 333 236 225 199 153 132 168 256 260 212 169 235 259 207 200 205 207 226 231 223 218 223 223 224 218 204 200 199 202 199 207 207 208 212 217 210 210 216 217 220 222 224 223
28 239 243 203 228 243 193 45 287 268 220 192 272 288 253 204 233 201 219 244 243 243 213 216 213 208 198 198 201 199 200 204 207 207 206 200 204 205 206 209 213 218 224 227
175 243 176 193 227 243 217 182 228 219 142 36 106 322 317 317 215 240 249 237 243 246 243 226 210 199 198 194 198 199 202 206 204 202 202 208 218 219 218 215 214 215 221 229
222 274 250 243 239 185 278 227 209 163 136 206 128 268 279 286 285 251 254 252 250 247 238 238 218 202 204 204 204 205 204 206 207 210 211 213 213 215 227 227 224 220 223 231
254 201 215 282 214 140 228 195 186 182 112 100 236 63 269 63 274 262 269 254 241 242 218 228 210 216 216 208 208 210 211 213 212 215 217 217 216 225 231 231 230 227 230 234
263 315 261 221 201 195 254 100 57 63 81 356 208 157 275 200 207 262 240 249 258 226 211 223 213 212 220 217 218 216 217 218 214 218 217 219 219 225 231 229 226 232 236 237
318 262 267 204 298 339 72 58 357 356 13 224 316 143 241 232 211 214 229 241 248 248 235 235 189 194 213 211 215 217 220 222 221 220 218 221 226 228 229 232 230 225 227 227
188 335 278 96 190 203 348 145 148 231 241 277 61 233 252 248 222 192 210 239 251 270 276 244 229 200 213 219 219 224 221 225 226 224 225 226 230 234 234 236 237 232 223 223
157 276 295 259 219 127 242 260 174 109 50 57 252 292 322 53 155 223 163 176 203 212 270 250 267 222 227 230 235 241 242 242 241 234 234 233 236 235 235 234 240 227 211 224
188 331 261 293 42 355 173 161 28 12 117 287 293 284 235 234 223 230 187 185 185 159 147 140 210 234 238 247 248 245 248 250 244 239 241 244 243 239 235 233 221 178 184 242
134 104 290 18 13 243 353 8 49 114 117 170 229 266 222 238 200 206 187 173 174 173 178 183 227 250 257 261 266 270 261 258 259 261 255 250 247 240 232 219 198 207 204 242
191 136 251 220 243 343 257 101 114 109 280 194 161 272 321 258 171 171 175 166 165 175 180 188 190 191 209 243 253 267 271 272 289 295 282 269 252 241 211 181 197 241 209 224
181 269 7 346 354 360 47 356 107 105 73 226 141 263 343 344 137 170 153 168 183 182 190 200 208 192 195 210 232 249 273 292 299 298 286 273 246 212 182 179 163 352 246 189
98 136 147 191 220 205 314 302 125 130 120 226 228 273 283 256 174 164 183 190 196 203 199 210 227 223 216 220 230 237 249 273 288 290 284 273 241 203 195 207 237 218 232 217
95 180 164 251 233 223 245 252 225 206 223 182 264 210 244 209 196 189 191 204 212 219 215 220 228 224 221 224 232 233 243 267 281 277 276 283 241 210 203 211 250 221 205 208
17 248 172 279 290 222 267 273 273 248 222 241 264 271 217 201 198 199 209 209 232 236 234 234 234 239 237 233 238 239 243 252 258 274 284 285 214 207 204 210 224 211 202 204
131 142 125 247 302 322 307 232 237 246 239 186 212 242 152 194 208 201 208 213 222 232 229 228 224 227 236 235 236 231 237 242 258 273 282 241 196 192 201 207 204 203 201 203
162 150 147 239 45 283 252 258 231 229 242 215 247 226 184 185 193 185 193 183 201 215 228 232 233 240 247 245 236 225 223 232 239 251 252 234 201 194 198 196 201 197 206 202
149 137 159 174 203 287 311 284 203 184 252 207 210 188 150 95 76 278 209 213 211 213 220 224 232 243 252 236 218 207 210 218 221 223 227 223 217 206 204 199 197 208 218 207
85 86 117 97 189 243 247 306 315 116 301 214 174 177 155 121 160 241 228 222 231 230 237 229 233 239 239 225 209 207 215 212 218 219 219 213 206 202 204 204 204 210 211 202
354 11 174 190 229 279 251 298 318 48 260 177 166 180 161 185 207 223 220 234 240 247 250 232 226 229 233 217 205 212 218 220 227 218 214 215 213 209 209 197 188 191 197 204
181 163 266 80 276 295 350 340 348 245 280 217 186 201 199 235 286 268 285 262 258 245 237 228 226 232 233 215 208 215 220 234 220 212 213 215 213 205 203 194 173 173 181 189
256 178 200 172 221 255 277 233 254 224 223 257 245 258 232 265 280 291 274 277 261 254 269 254 236 238 234 220 217 213 237 228 212 207 212 213 214 208 209 203 188 182 191 199
265 136 181 30 292 287 305 299 298 297 239 224 210 198 190 222 253 262 258 268 271 256 258 255 236 229 233 230 225 227 235 226 212 210 211 209 211 209 213 211 205 203 206 209
210 21 218 267 291 310 302 302 263 277 261 245 255 226 221 214 243 238 253 252 246 247 249 249 234 228 234 237 235 236 234 221 210 211 212 208 213 213 214 213 217 221 226 218
189 198 182 257 251 213 254 275 297 268 268 305 297 304 304 298 285 303 293 288 285 281 268 240 236 236 244 243 240 241 233 220 212 206 207 207 212 217 222 222 227 234 239 231